GW2497 Weather Reports


time (UTC)temp
F
wind
direction
speed
knots
gust
knots
rain 1hr
in
rain 24hr
in
rain mn
in
humidity
%
barometer
mb
20260506034004 60 184 0.0 0.0 0.00 0.00 0.00 90 1016.2
20260506033504 60 184 0.0 0.0 0.00 0.00 0.00 90 1016.1
20260506033006 60 184 0.0 0.0 0.00 0.00 0.00 90 1016.0
20260506032504 61 184 0.0 0.0 0.00 0.00 0.00 89 1016.2
20260506032006 61 184 0.0 0.0 0.00 0.00 0.00 89 1016.0
20260506031504 61 184 0.0 0.0 0.00 0.00 0.00 89 1015.9
20260506031004 61 184 0.0 0.0 0.00 0.00 0.00 88 1015.8
20260506030504 61 184 0.0 0.0 0.00 0.00 0.00 88 1015.7
20260506030006 61 184 0.0 0.0 0.00 0.00 0.00 88 1015.7
20260506025503 61 184 0.0 0.0 0.00 0.00 0.00 88 1015.9
20260506025008 62 184 0.0 0.0 0.00 0.00 0.00 87 1015.8
20260506024504 62 184 0.0 0.0 0.00 0.00 0.00 87 1015.8
20260506024004 62 184 0.0 0.0 0.00 0.00 0.00 87 1015.7
20260506023504 62 184 0.0 0.0 0.00 0.00 0.00 86 1015.7
20260506023003 62 184 0.0 0.0 0.00 0.00 0.00 86 1015.8
20260506022503 62 184 0.0 0.0 0.00 0.00 0.00 85 1015.9
20260506022003 63 184 0.0 0.0 0.00 0.00 0.00 85 1015.8
20260506021504 63 184 0.0 0.0 0.00 0.00 0.00 85 1015.8
20260506021009 63 184 0.0 0.0 0.00 0.00 0.00 84 1015.8
20260506020503 63 184 0.0 0.0 0.00 0.00 0.00 84 1015.8
20260506020006 63 184 0.0 0.0 0.00 0.00 0.00 84 1015.9
20260506015504 64 184 0.0 0.0 0.00 0.00 0.00 83 1016.0
20260506015004 64 184 0.0 0.0 0.00 0.00 0.00 83 1015.8
20260506014504 64 184 0.0 0.0 0.00 0.00 0.00 82 1015.9
20260506014003 64 184 0.0 0.0 0.00 0.00 0.00 82 1015.8
20260506013503 65 184 0.0 0.0 0.00 0.00 0.00 81 1015.7
20260506013004 65 184 0.0 0.0 0.00 0.00 0.00 81 1015.8
20260506012504 65 184 0.0 0.0 0.00 0.00 0.00 80 1015.7
20260506012004 66 184 0.0 0.0 0.00 0.00 0.00 79 1015.8
20260506011504 66 184 0.0 0.0 0.00 0.00 0.00 79 1015.8
20260506011003 66 184 0.0 0.0 0.00 0.00 0.00 78 1015.8
20260506010504 66 184 0.0 0.0 0.00 0.00 0.00 78 1015.7
20260506010007 67 184 0.0 0.0 0.00 0.00 0.00 77 1015.6
20260506005504 67 184 0.0 0.0 0.00 0.00 0.00 76 1015.6
20260506005003 68 184 0.0 0.0 0.00 0.00 0.00 75 1015.6
20260506004504 68 184 0.0 0.0 0.00 0.00 0.00 73 1015.4
20260506004006 68 184 0.0 0.0 0.00 0.00 0.00 71 1015.4
20260506003507 69 184 0.0 0.0 0.00 0.00 0.00 70 1015.3
20260506003004 70 184 0.0 0.0 0.00 0.00 0.00 69 1015.2
20260506002503 70 184 0.0 0.0 0.00 0.00 0.00 68 1015.1
20260506002004 71 184 0.0 0.0 0.00 0.00 0.00 66 1015.0
20260506001504 71 184 0.0 0.0 0.00 0.00 0.00 66 1015.0
20260506001004 72 184 0.0 0.0 0.00 0.00 0.00 64 1014.9
20260506000504 72 184 0.0 0.0 0.00 0.00 0.00 63 1014.9
20260506000005 72 184 0.0 0.9 0.00 0.00 0.00 63 1014.8
20260505235503 73 184 0.0 3.5 0.00 0.00 0.00 62 1014.9
20260505235003 73 210 0.0 3.5 0.00 0.00 0.00 62 1015.0
20260505234503 73 157 0.0 1.7 0.00 0.00 0.00 61 1015.0
20260505234003 73 175 0.0 2.6 0.00 0.00 0.00 61 1015.0
20260505233505 74 165 0.0 2.6 0.00 0.00 0.00 60 1015.0
20260505233002 74 275 0.0 2.6 0.00 0.00 0.00 60 1014.9
20260505232503 74 193 0.0 4.3 0.00 0.00 0.00 59 1014.9
20260505232003 74 185 0.0 4.3 0.00 0.00 0.00 59 1015.0
20260505231503 74 296 0.9 4.3 0.00 0.00 0.00 58 1015.0
20260505231002 75 204 0.0 4.3 0.00 0.00 0.00 59 1015.0
20260505230502 75 170 0.0 5.2 0.00 0.00 0.00 59 1015.0
20260505230010 75 206 1.7 4.3 0.00 0.00 0.00 58 1015.1
20260505225503 75 195 0.0 3.5 0.00 0.00 0.00 58 1015.1
20260505225003 75 196 0.9 7.0 0.00 0.00 0.00 57 1015.2
20260505224502 76 250 0.9 7.0 0.00 0.00 0.00 56 1015.2
20260505224003 76 186 1.7 4.3 0.00 0.00 0.00 56 1015.2
20260505223502 76 197 0.0 3.5 0.00 0.00 0.00 56 1015.1
20260505223003 76 81 0.9 3.5 0.00 0.00 0.00 54 1015.1
20260505222503 76 167 0.9 4.3 0.00 0.00 0.00 54 1015.1
20260505222003 76 355 0.9 4.3 0.00 0.00 0.00 53 1015.0
20260505221503 77 46 0.9 3.5 0.00 0.00 0.00 54 1015.0
20260505221002 77 219 0.0 3.5 0.00 0.00 0.00 53 1015.1
20260505220502 77 265 0.9 3.5 0.00 0.00 0.00 52 1015.1
20260505220005 77 50 0.9 5.2 0.00 0.00 0.00 52 1015.1
20260505215505 77 184 0.9 5.2 0.00 0.00 0.00 52 1015.2
20260505215003 77 10 0.0 2.6 0.00 0.00 0.00 51 1015.2
20260505214503 77 320 0.0 4.3 0.00 0.00 0.00 48 1015.3
20260505214002 77 284 1.7 7.0 0.00 0.00 0.00 48 1015.3
20260505213504 77 52 0.0 7.0 0.00 0.00 0.00 51 1015.3
20260505213007 78 209 0.0 5.2 0.00 0.00 0.00 50 1015.3
20260505212502 78 248 0.9 5.2 0.00 0.00 0.00 49 1015.3
20260505212003 78 155 0.9 4.3 0.00 0.00 0.00 53 1015.4
20260505211507 78 13 0.9 3.5 0.00 0.00 0.00 54 1015.3
20260505211003 78 279 0.9 6.1 0.00 0.00 0.00 54 1015.2
20260505210502 78 97 0.9 6.1 0.00 0.00 0.00 53 1015.3
20260505210005 78 199 0.9 6.1 0.00 0.00 0.00 52 1015.3
20260505205506 78 43 0.9 5.2 0.00 0.00 0.00 53 1015.4
20260505205003 79 10 0.9 3.5 0.00 0.00 0.00 51 1015.2
20260505204503 78 169 1.7 4.3 0.00 0.00 0.00 52 1015.3
20260505204003 79 63 0.9 5.2 0.00 0.00 0.00 50 1015.3
20260505203502 79 186 1.7 5.2 0.00 0.00 0.00 51 1015.3
20260505203003 79 199 0.9 5.2 0.00 0.00 0.00 50 1015.3
20260505202503 79 256 1.7 5.2 0.00 0.00 0.00 51 1015.4
20260505202004 79 197 0.9 5.2 0.00 0.00 0.00 52 1015.4
20260505201503 80 360 0.9 6.1 0.00 0.00 0.00 52 1015.4
20260505201002 80 198 1.7 7.0 0.00 0.00 0.00 54 1015.4
20260505200503 80 295 0.9 4.3 0.00 0.00 0.00 52 1015.4
20260505200010 80 47 1.7 4.3 0.00 0.00 0.00 52 1015.6
20260505195502 80 17 0.9 6.1 0.00 0.00 0.00 51 1015.6
20260505195002 80 174 2.6 7.0 0.00 0.00 0.00 51 1015.5
20260505194502 80 44 1.7 7.0 0.00 0.00 0.00 52 1015.6
20260505194005 80 178 1.7 4.3 0.00 0.00 0.00 50 1015.6
20260505193503 80 275 0.9 6.1 0.00 0.00 0.00 50 1015.8
20260505193003 80 15 0.9 6.1 0.00 0.00 0.00 51 1015.9
20260505192502 79 327 1.7 6.1 0.00 0.00 0.00 51 1015.9
20260505192002 80 22 2.6 6.1 0.00 0.00 0.00 50 1015.9
20260505191508 80 355 0.9 5.2 0.00 0.00 0.00 50 1015.9
20260505191004 80 202 0.9 6.1 0.00 0.00 0.00 50 1016.0
20260505190505 80 53 1.7 6.1 0.00 0.00 0.00 51 1016.0
20260505190010 80 47 0.0 6.1 0.00 0.00 0.00 53 1016.2
20260505185502 80 167 0.9 4.3 0.00 0.00 0.00 53 1016.2
20260505185003 80 71 0.0 5.2 0.00 0.00 0.00 50 1016.1
20260505184504 80 9 1.7 5.2 0.00 0.00 0.00 50 1016.4
20260505184002 81 9 0.9 5.2 0.00 0.00 0.00 52 1016.4
20260505183504 81 13 1.7 5.2 0.00 0.00 0.00 50 1016.4
20260505183008 81 175 0.9 5.2 0.00 0.00 0.00 49 1016.3
20260505182503 81 224 0.9 5.2 0.00 0.00 0.00 50 1016.2
20260505182003 81 281 0.9 5.2 0.00 0.00 0.00 48 1016.3
20260505181502 81 186 0.9 7.0 0.00 0.00 0.00 51 1016.3
20260505181003 81 163 1.7 7.0 0.00 0.00 0.00 50 1016.4
20260505180503 81 30 1.7 6.1 0.00 0.00 0.00 49 1016.5
20260505180008 81 153 1.7 6.1 0.00 0.00 0.00 52 1016.6
20260505175502 81 20 1.7 5.2 0.00 0.00 0.00 49 1016.7
20260505175003 81 62 1.7 7.0 0.00 0.00 0.00 49 1016.6
20260505174506 81 117 0.9 7.0 0.00 0.00 0.00 51 1016.5
20260505174003 81 157 0.9 4.3 0.00 0.00 0.00 52 1016.6
20260505173503 81 296 0.0 3.5 0.00 0.00 0.00 54 1016.6
20260505173002 82 192 0.9 7.0 0.00 0.00 0.00 53 1016.7
20260505172502 81 163 1.7 7.0 0.00 0.00 0.00 55 1016.7
20260505172005 81 199 0.9 7.0 0.00 0.00 0.00 51 1016.7
20260505171505 81 155 2.6 5.2 0.00 0.00 0.00 53 1016.8
20260505171003 80 161 0.9 5.2 0.00 0.00 0.00 52 1016.8
20260505170502 81 84 1.7 5.2 0.00 0.00 0.00 52 1016.8
20260505170005 80 140 0.9 5.2 0.00 0.00 0.00 52 1016.8
20260505165502 80 188 0.9 5.2 0.00 0.00 0.00 54 1016.9
20260505165002 80 220 0.9 9.6 0.00 0.00 0.00 54 1016.9
20260505164502 80 207 0.9 2.6 0.00 0.00 0.00 52 1016.9
20260505164003 80 321 0.9 4.3 0.00 0.00 0.00 54 1016.9
20260505163502 80 30 1.7 6.1 0.00 0.00 0.00 53 1017.0
20260505163003 80 21 0.9 7.8 0.00 0.00 0.00 55 1017.1
20260505162502 80 149 1.7 7.8 0.00 0.00 0.00 54 1017.0
20260505162002 80 223 0.9 5.2 0.00 0.00 0.00 57 1016.9
20260505161503 80 201 1.7 5.2 0.00 0.00 0.00 53 1016.8
20260505161002 80 153 0.9 4.3 0.00 0.00 0.00 56 1016.8
20260505160502 80 197 0.9 7.0 0.00 0.00 0.00 56 1016.7
20260505153002 79 187 0.0 7.0 0.00 0.00 0.00 59 1016.9
20260505152502 78 177 1.7 7.0 0.00 0.00 0.00 58 1016.8
20260505152001 78 53 0.9 5.2 0.00 0.00 0.00 57 1016.9
20260505151501 78 174 2.6 5.2 0.00 0.00 0.00 58 1016.9
20260505151001 78 197 0.9 3.5 0.00 0.00 0.00 58 1016.9
20260505150501 78 60 0.9 3.5 0.00 0.00 0.00 57 1016.9
20260505140501 74 224 0.0 3.5 0.00 0.00 0.00 70 1016.6
20260505125001 63 269 0.0 0.9 0.00 0.00 0.00 99 1016.4
20260505124502 62 269 0.0 0.0 0.00 0.00 0.00 99 1016.4
20260505124001 61 269 0.0 0.0 0.00 0.00 0.00 99 1016.3
20260505123501 60 269 0.0 0.0 0.00 0.00 0.00 99 1016.3
20260505123001 59 269 0.0 0.0 0.00 0.00 0.00 99 1016.2
20260505122501 59 269 0.0 0.0 0.00 0.00 0.00 98 1016.3
20260505122001 58 269 0.0 0.0 0.00 0.00 0.00 98 1016.3
20260505121503 57 269 0.0 0.0 0.00 0.00 0.00 98 1016.1
20260505121001 57 269 0.0 0.0 0.00 0.00 0.00 98 1016.0
20260505120505 56 269 0.0 0.0 0.00 0.00 0.00 98 1016.1
20260505120004 55 269 0.0 0.0 0.00 0.00 0.00 98 1016.0
20260505115501 55 269 0.0 0.0 0.00 0.00 0.00 98 1016.1
20260505115001 55 269 0.0 0.0 0.00 0.00 0.00 98 1016.0
20260505114501 54 269 0.0 0.0 0.00 0.00 0.00 98 1016.0
20260505114004 54 269 0.0 0.0 0.00 0.00 0.00 98 1016.0
20260505113501 54 269 0.0 0.0 0.00 0.00 0.00 97 1016.0
20260505113005 53 269 0.0 0.0 0.00 0.00 0.00 97 1015.9
20260505112501 53 269 0.0 0.0 0.00 0.00 0.00 97 1015.8
20260505112003 53 269 0.0 0.0 0.00 0.00 0.00 97 1015.6
20260505111501 53 269 0.0 0.0 0.00 0.00 0.00 97 1015.6
20260505111001 53 269 0.0 0.0 0.00 0.00 0.00 97 1015.5
20260505110503 53 269 0.0 0.0 0.00 0.00 0.00 97 1015.5
20260505102001 52 269 0.0 0.0 0.00 0.00 0.00 96 1015.2
20260505101501 52 269 0.0 0.0 0.00 0.00 0.00 96 1015.2
20260505101001 53 269 0.0 0.0 0.00 0.00 0.00 96 1015.3
20260505100501 53 269 0.0 0.0 0.00 0.00 0.00 96 1015.4
20260505100004 53 269 0.0 0.0 0.00 0.00 0.00 96 1015.2
20260505095501 53 269 0.0 0.0 0.00 0.00 0.00 96 1015.2
20260505095001 53 269 0.0 0.0 0.00 0.00 0.00 96 1015.1
20260505094501 53 269 0.0 0.0 0.00 0.00 0.00 96 1015.0
20260505094002 53 269 0.0 0.0 0.00 0.00 0.00 96 1015.0
20260505093501 53 269 0.0 0.0 0.00 0.00 0.00 96 1015.1
20260505093001 53 269 0.0 0.0 0.00 0.00 0.00 96 1015.0
20260505092500 53 269 0.0 0.0 0.00 0.00 0.00 96 1014.9
20260505092001 54 269 0.0 0.0 0.00 0.00 0.00 96 1014.9
20260505091501 54 269 0.0 0.0 0.00 0.00 0.00 96 1014.8
20260505091004 54 269 0.0 0.0 0.00 0.00 0.00 96 1014.9
20260505090501 54 269 0.0 0.0 0.00 0.00 0.00 96 1014.9
20260505090108 54 269 0.0 0.0 0.00 0.00 0.00 96 1015.0
20260505041504 58 269 0.0 0.0 0.00 0.00 0.00 93 1016.2
20260505041004 58 269 0.0 0.0 0.00 0.00 0.00 93 1016.2
20260505040504 58 269 0.0 0.0 0.00 0.00 0.00 93 1016.3
20260505040008 58 269 0.0 0.0 0.00 0.00 0.00 93 1016.2
20260505035508 58 269 0.0 0.0 0.00 0.00 0.00 93 1016.3
20260505035004 58 269 0.0 0.0 0.00 0.00 0.00 93 1016.3
20260505034504 58 269 0.0 0.0 0.00 0.00 0.00 93 1016.3